Dyersburg, TN

9:30 PM CST on December 04, 2016 (GMT -0600)
Dyersburg Municipal

Weather History for KDYR - July, 2013

Change the Weather History Date:

Saturday, July 27, 2013

  Actual Average Record
Temperature  
Mean Temperature 78 °F -  
Max Temperature 86 °F 86 °F 98 °F (1997)
Min Temperature 69 °F 69 °F 59 °F (2004)
Cooling Degree Days 12    
Growing Degree Days 28 (Base 50)    
Moisture  
Dew Point 60 °F    
Average Humidity 60    
Maximum Humidity 73    
Minimum Humidity 45    
Precipitation  
Precipitation 0.01 in - - ()
Sea Level Pressure  
Sea Level Pressure 29.97 in    
Wind  
Wind Speed 3 mph (NW)    
Max Wind Speed 10 mph    
Max Gust Speed -    
Visibility 9 miles    
Events      
Averages and records for this station are not official NWS values.
T = Trace of Precipitation, MM = Missing Value Source: NWS Daily Summary

Daily Weather History Graph

Daily Weather History Graph

Search for Another Location

Airport or City:

Trip Planner

Search our weather history database for the weather conditions in past years. The results will help you decide how hot, cold, wet, or windy it might be!

Date:

Astronomy

Jul. 27, 2013 Rise Set
Actual Time 6:01 AM CDT 8:06 PM CDT
Civil Twilight 5:32 AM CDT 8:35 PM CDT
Nautical Twilight 4:57 AM CDT 9:09 PM CDT
Astronomical Twilight 4:20 AM CDT 9:47 PM CDT
Moon 11:07 PM CDT (7/27) 11:28 AM CDT (7/27)
Length of Visible Light 15h 02m
Length of Day
14h 05m
Waning Gibbous, 70% of the Moon is Illuminated
Jul 27
Waning Gibbous
Jul 29
Last Quarter
Aug 6
New
Aug 14
First Quarter
Aug 20
Full

Hourly Weather History & Observations

Time (CDT) Temp. Heat Index Dew Point Humidity Pressure Visibility Wind Dir Wind Speed Gust Speed Precip Events Conditions
12:15 AM 71.6 °F - 60.8 °F 69% 30.03 in 10.0 mi WNW 3.5 mph - N/A   Mostly Cloudy
12:35 AM 71.6 °F - 60.8 °F 69% 30.02 in 9.0 mi Calm Calm - N/A   Mostly Cloudy
12:55 AM 71.6 °F - 60.8 °F 69% 30.03 in 9.0 mi Calm Calm - N/A   Mostly Cloudy
1:16 AM 71.6 °F - 60.8 °F 69% 30.02 in 10.0 mi Calm Calm - 0.01 in   Mostly Cloudy
1:35 AM 71.6 °F - 60.8 °F 69% 30.01 in 5.0 mi Calm Calm - 0.01 in   Mostly Cloudy
1:55 AM 71.6 °F - 60.8 °F 69% 30.01 in 6.0 mi Calm Calm - 0.01 in   Mostly Cloudy
2:55 AM 69.8 °F - 60.8 °F 73% 30.00 in 5.0 mi Calm Calm - N/A   Overcast
3:16 AM 69.8 °F - 60.8 °F 73% 30.00 in 10.0 mi Calm Calm - N/A   Overcast
3:35 AM 69.8 °F - 60.8 °F 73% 29.99 in 7.0 mi SSW 3.5 mph - N/A   Overcast
3:55 AM 69.8 °F - 60.8 °F 73% 29.98 in 5.0 mi Calm Calm - N/A   Overcast
4:15 AM 69.8 °F - 60.8 °F 73% 29.98 in 7.0 mi NW 3.5 mph - N/A   Overcast
4:35 AM 69.8 °F - 60.8 °F 73% 29.97 in 10.0 mi NW 3.5 mph - N/A   Overcast
4:55 AM 69.8 °F - 60.8 °F 73% 29.97 in 10.0 mi NNW 3.5 mph - N/A   Overcast
5:15 AM 69.8 °F - 60.8 °F 73% 29.98 in 10.0 mi WNW 3.5 mph - N/A   Overcast
5:35 AM 69.8 °F - 60.8 °F 73% 29.98 in 10.0 mi WNW 3.5 mph - N/A   Overcast
5:55 AM 69.8 °F - 60.8 °F 73% 29.98 in 10.0 mi Calm Calm - N/A   Overcast
6:15 AM 69.8 °F - 60.8 °F 73% 29.98 in 9.0 mi Calm Calm - N/A   Overcast
6:35 AM 69.8 °F - 60.8 °F 73% 29.98 in 5.0 mi Calm Calm - N/A   Overcast
6:55 AM 69.8 °F - 60.8 °F 73% 29.99 in 6.0 mi Calm Calm - N/A   Overcast
7:15 AM 69.8 °F - 60.8 °F 73% 29.99 in 7.0 mi Calm Calm - N/A   Overcast
7:35 AM 69.8 °F - 60.8 °F 73% 30.00 in 10.0 mi Calm Calm - N/A   Overcast
7:56 AM 71.6 °F - 60.8 °F 69% 30.01 in 10.0 mi NNW 3.5 mph - N/A   Overcast
8:15 AM 71.6 °F - 60.8 °F 69% 30.01 in 10.0 mi Calm Calm - N/A   Overcast
8:35 AM 71.6 °F - 60.8 °F 69% 30.01 in 10.0 mi NNW 4.6 mph - N/A   Overcast
8:55 AM 71.6 °F - 60.8 °F 69% 30.00 in 9.0 mi NNW 4.6 mph - N/A   Overcast
9:15 AM 73.4 °F - 60.8 °F 65% 30.00 in 10.0 mi NNW 4.6 mph - N/A   Overcast
9:35 AM 73.4 °F - 60.8 °F 65% 29.99 in 10.0 mi NNW 3.5 mph - N/A   Overcast
9:55 AM 75.2 °F - 60.8 °F 61% 29.99 in 10.0 mi NW 5.8 mph - N/A   Partly Cloudy
10:15 AM 75.2 °F - 60.8 °F 61% 29.99 in 10.0 mi NW 4.6 mph - N/A   Clear
10:36 AM 77.0 °F - 60.8 °F 57% 30.00 in 10.0 mi NW 4.6 mph - N/A   Clear
11:15 AM 78.8 °F - 60.8 °F 54% 29.99 in 10.0 mi West 5.8 mph - N/A   Partly Cloudy
11:35 AM 80.6 °F 81.5 °F 60.8 °F 51% 29.98 in 10.0 mi WSW 6.9 mph - N/A   Clear
11:36 AM 80.6 °F 81.5 °F 60.8 °F 51% 29.98 in 10.0 mi WSW 6.9 mph - N/A   Clear
11:55 AM 80.6 °F 81.5 °F 60.8 °F 51% 29.98 in 10.0 mi NW 5.8 mph - N/A   Clear
12:15 PM 80.6 °F 81.5 °F 60.8 °F 51% 29.97 in 10.0 mi WNW 6.9 mph - N/A   Partly Cloudy
12:35 PM 82.4 °F 82.9 °F 60.8 °F 48% 29.97 in 8.0 mi West 8.1 mph - N/A   Scattered Clouds
12:55 PM 80.6 °F 81.8 °F 62.6 °F 54% 29.97 in 10.0 mi West 8.1 mph - N/A   Scattered Clouds
1:15 PM 80.6 °F 81.5 °F 60.8 °F 51% 29.96 in 10.0 mi West 4.6 mph - N/A   Partly Cloudy
1:35 PM 82.4 °F 82.9 °F 60.8 °F 48% 29.96 in 10.0 mi West 9.2 mph - N/A   Partly Cloudy
1:55 PM 84.2 °F 84.4 °F 60.8 °F 45% 29.95 in 10.0 mi WSW 5.8 mph - N/A   Partly Cloudy
2:15 PM 82.4 °F 82.9 °F 60.8 °F 48% 29.94 in 10.0 mi WNW 4.6 mph - N/A   Partly Cloudy
2:35 PM 82.4 °F 82.9 °F 60.8 °F 48% 29.94 in 10.0 mi West 4.6 mph - N/A   Clear
2:55 PM 84.2 °F 84.4 °F 60.8 °F 45% 29.93 in 10.0 mi West 8.1 mph - N/A   Partly Cloudy
3:15 PM 84.2 °F 84.4 °F 60.8 °F 45% 29.93 in 10.0 mi West 6.9 mph - N/A   Partly Cloudy
3:55 PM 86.0 °F 86.6 °F 62.6 °F 45% 29.91 in 10.0 mi West 6.9 mph - N/A   Scattered Clouds
4:35 PM 82.4 °F 83.4 °F 62.6 °F 51% 29.91 in 10.0 mi WNW 5.8 mph - N/A   Scattered Clouds
4:55 PM 84.2 °F 85.0 °F 62.6 °F 48% 29.92 in 10.0 mi West 5.8 mph - N/A   Mostly Cloudy
5:15 PM 84.2 °F 85.0 °F 62.6 °F 48% 29.92 in 10.0 mi West 9.2 mph - N/A   Mostly Cloudy
5:35 PM 82.4 °F 83.4 °F 62.6 °F 51% 29.91 in 10.0 mi NW 6.9 mph - N/A   Partly Cloudy
5:55 PM 82.4 °F 83.4 °F 62.6 °F 51% 29.91 in 10.0 mi WNW 5.8 mph - N/A   Scattered Clouds
6:15 PM 82.4 °F 82.9 °F 60.8 °F 48% 29.91 in 10.0 mi NW 5.8 mph - N/A   Partly Cloudy
6:35 PM 82.4 °F 82.9 °F 60.8 °F 48% 29.91 in 10.0 mi NW 6.9 mph - N/A   Partly Cloudy
6:56 PM 80.6 °F 81.5 °F 60.8 °F 51% 29.92 in 10.0 mi WNW 6.9 mph - N/A   Clear
7:15 PM 80.6 °F 81.5 °F 60.8 °F 51% 29.92 in 10.0 mi NNW 6.9 mph - N/A   Clear
7:35 PM 78.8 °F - 60.8 °F 54% 29.93 in 10.0 mi North 10.4 mph - N/A   Clear
7:55 PM 78.8 °F - 60.8 °F 54% 29.93 in 10.0 mi North 9.2 mph - N/A   Clear
8:15 PM 75.2 °F - 59.0 °F 57% 29.94 in 10.0 mi North 5.8 mph - N/A   Clear
8:35 PM 75.2 °F - 59.0 °F 57% 29.95 in 10.0 mi North 5.8 mph - N/A   Partly Cloudy
8:55 PM 75.2 °F - 57.2 °F 53% 29.95 in 10.0 mi North 5.8 mph - N/A   Partly Cloudy
9:15 PM 73.4 °F - 57.2 °F 57% 29.96 in 10.0 mi NNW 5.8 mph - N/A   Clear
9:35 PM 73.4 °F - 57.2 °F 57% 29.96 in 10.0 mi NNW 3.5 mph - N/A   Clear
9:55 PM 73.4 °F - 57.2 °F 57% 29.96 in 10.0 mi Calm Calm - N/A   Clear
10:15 PM 71.6 °F - 57.2 °F 60% 29.96 in 10.0 mi Calm Calm - N/A   Clear
10:35 PM 71.6 °F - 57.2 °F 60% 29.97 in 10.0 mi ENE 3.5 mph - N/A   Scattered Clouds
10:55 PM 71.6 °F - 57.2 °F 60% 29.98 in 10.0 mi NNE 5.8 mph - N/A   Overcast
11:15 PM 71.6 °F - 57.2 °F 60% 29.98 in 10.0 mi NNE 6.9 mph - N/A   Mostly Cloudy
11:35 PM 71.6 °F - 55.4 °F 57% 29.98 in 10.0 mi NE 5.8 mph - N/A   Scattered Clouds
11:55 PM 69.8 °F - 55.4 °F 60% 29.98 in 10.0 mi NNE 5.8 mph - N/A   Partly Cloudy